Volver al catálogo

N-1 DEB

ActivoLEO
NORAD 13510·DEBRIS·🇯🇵 Japan

Lanzado Sep 3, 1982 desde Tanegashima Space Center

Loading…

Próximos Pases (próximas 24 horas)

TLE

ActualizadoSource: Space-Track

Época: Sep 14, 2026, 02:39 UTC

1 13510U 82087C   26257.11089253  .00000592  00000-0  87595-3 0  9999
2 13510  44.5744 266.3889 0158013 104.4402 304.8703 13.59424321623375

Sigue N-1 DEB en tiempo real con AllMySat

Download on the App Store